Location: Unspecified
(0.0000°N, 0.0000°E)
Time: 07:18:58
(UTC+00:00)

STARLINK-2735 - Pass Details

Date: 12 June 2021
Orbit: 348 x 350 km, 53.0° (Epoch: 20 June)

Event Time Altitude Azimuth Distance (km) Brightness Sun altitude
Exits shadow 04:35:05 - 153° (SSE) 1,403 5.7 -19.4°
Reaches altitude 10° 04:35:42 10° 143° (SE) 1,303 5.7 -19.3°
Maximum altitude 04:36:35 11° 125° (SE) 1,245 5.8 -19.1°
Drops below altitude 10° 04:37:28 10° 107° (ESE) 1,301 6.2 -18.9°
Sets 04:40:39 0° 68° (ENE) 2,137 8.4 -18.2°
